Location: *
(45.1961°N, 1.9694°E)
Time: 05:55:21
(UTC+00:00)

SPOT 1/Viking Rocket - Pass Details

Date: 25 August 2019
Orbit: 777 x 795 km, 98.5° (Epoch: 19 September)

Event Time Altitude Azimuth Distance (km) Brightness Sun altitude
Exits shadow 20:47:49 39° 113° (ESE) 1,169 3.9 -20.2°
Maximum altitude 20:49:11 50° 70° (ENE) 1,014 3.9 -20.4°
Drops below altitude 10° 20:54:13 10° 356° (N) 2,370 6.6 -21.0°
Sets 20:56:36 0° 351° (N) 3,302 7.6 -21.3°
